sat.trackr.live / text

‹ back to catalog

FORMOSAT 7-2

NORAD 44351 · 2019-036N

PAYLOAD ACTIVE UNKNOWN

§ Identity

Operator
Country
ROC
Launch date
2019-06-25
Launch site
AFETR
Launch vehicle
Mass (kg)
RCS (m²)

External: N2YO · Heavens-Above · Gunter

§ Orbital elements

Epoch: 2026-09-12T02:19:36.564672Z

Period
96.20 min
Inclination
23.9981°
Eccentricity
0.0000949
Mean motion
14.96806603 rev/d
Perigee alt
576.1 km
Apogee alt
577.4 km
Semi-major
6,954.9 km
B*
1.3199e-4
RAAN
282.7576°
Arg perigee
112.9837°
Mean anomaly
247.0764°
Rev number
39,662

§ Raw data

FORMOSAT 7-21 44351U 19036N   26255.09695098  .00001852  00000+0  13199-3 0  99932 44351  23.9981 282.7576 0000949 112.9837 247.0764 14.96806603396620

JSON: /api/v1/satellites/44351 · /tle

For live sub-satellite position, see the globe view (requires WebGL).

§ Visibility from observer

Set your observer location to see the next 7 days of passes ≥ 10°. The values pass through the URL so the page stays shareable.

No JS? Fill the form by hand. The geolocation button needs JavaScript.

§ Radio — SatNOGS DB

ModeDescriptionDownlinkUplink
CW Downlink 400.900 MHz
FM Mode S TT&C 2.264 GHz
FM Mode S2 2.200 GHz

3 transmitters · refreshed weekly from db.satnogs.org